date,time,DOY,Ta_1_1_1,Pa_1_1_1,RH_1_1_1,LWin_1_1_1,LWout_1_1_1,SWin_1_1_1,SWout_1_1_1,PPFD_1_1_1,MWS_1_1_1,WD_1_1_1,SWC_1_1_1,Ts_1_1_1
[yyyy-mm-dd],[HH:MM],[ddd.ddd],[K],[Pa],[%],[W+1m-2],[W+1m-2],[W+1m-2],[W+1m-2],[µmol+1m-2s-1],[m+1s-1],[deg],[m+3m-3],[K]
2018-06-03,00:30,154.020,287.84566666666677,94349.100000000006,89.015999999999991,389.33833333333337,387.11599999999999,2.7969999999999993,11.357333333333337,28.676333333333336,4.2566666666666668,130.13233333333332,0.30999999999999989,286.10366666666675
2018-06-03,01:00,154.041,287.53433333333334,94439.733333333337,90.396666666666675,388.19333333333333,387.25500000000005,0.91866666666666674,2.0786666666666664,5.9910000000000005,3.7266666666666675,163.05533333333332,0.32133333333333342,286.08600000000001
2018-06-03,01:30,154.062,287.19766666666675,94433.866666666669,90.587666666666692,386.44100000000009,385.73566666666670,1.1896666666666667,3.1226666666666660,7.7423333333333346,3.2266666666666666,168.25533333333334,0.34399999999999981,286.09433333333340
2018-06-03,02:00,154.083,286.85566666666671,94394.399999999994,90.439000000000021,384.49466666666660,383.66533333333331,0.79999999999999971,0.30466666666666659,1.3506666666666662,3.7566666666666668,150.31066666666666,0.35933333333333323,286.09766666666673
2018-06-03,02:30,154.104,286.60000000000019,94393.699999999997,90.580000000000013,383.15933333333317,382.24266666666665,0.68033333333333335,-0.22733333333333330,6.23333333333333517E-002,4.1033333333333344,152.31100000000004,0.37200000000000016,286.06900000000007
2018-06-03,03:00,154.124,286.48766666666671,94396.466666666660,90.936666666666696,382.64933333333335,381.80833333333334,0.57533333333333336,-0.14633333333333334,1.30000000000000063E-002,3.6933333333333329,160.74433333333334,0.38000000000000017,286.04566666666670
2018-06-03,03:30,154.145,286.29100000000017,94374.866666666669,90.803333333333342,381.51933333333341,380.72500000000008,0.29633333333333339,-0.22366666666666674,2.00000000000000004E-003,4.1033333333333344,155.33400000000000,0.38000000000000017,285.99833333333322
2018-06-03,04:00,154.166,286.14200000000005,94349.100000000006,91.015666666666647,380.77199999999999,380.09133333333341,0.21200000000000008,-0.18166666666666670,5.66666666666666621E-003,3.7566666666666664,146.53433333333334,0.37699999999999972,285.94099999999992
2018-06-03,04:30,154.187,286.06000000000017,94321.233333333337,91.341000000000037,380.56033333333340,379.94300000000010,0.19833333333333336,-0.10000000000000005,-3.33333333333333160E-004,2.6599999999999993,151.74400000000003,0.36999999999999983,285.88200000000001
2018-06-03,05:00,154.208,286.03700000000003,94292.433333333334,91.402333333333388,380.36000000000001,379.72833333333335,0.20000000000000004,-0.10700000000000000,5.33333333333333316E-003,1.8033333333333337,174.17666666666665,0.36999999999999983,285.82933333333330
2018-06-03,05:30,154.229,285.97966666666667,94262.766666666663,91.396666666666718,380.02566666666667,379.38900000000001,0.19233333333333341,-0.12033333333333336,8.66666666666666627E-003,1.5266666666666671,174.71066666666667,0.36999999999999983,285.78200000000004
2018-06-03,06:00,154.249,285.93099999999998,94240.100000000006,91.515666666666647,379.73000000000008,379.13333333333333,0.19933333333333333,-6.16666666666666891E-002,0.0000000000000000,2.4233333333333329,158.10133333333334,0.36999999999999983,285.73166666666657
2018-06-03,06:30,154.270,285.95233333333334,94204.433333333334,91.669333333333313,379.72133333333329,379.13666666666660,0.20733333333333342,-3.20000000000000007E-002,1.20000000000000002E-002,2.1099999999999999,171.02266666666665,0.36999999999999983,285.68500000000000
2018-06-03,07:00,154.291,285.93200000000007,94163.566666666666,91.699999999999989,379.72833333333335,379.14766666666668,0.22266666666666671,-4.40000000000000183E-002,7.00000000000000188E-003,2.5966666666666667,170.64399999999998,0.36999999999999983,285.64666666666670
2018-06-03,07:30,154.312,285.92466666666661,94115.933333333334,91.660999999999959,379.72866666666670,379.11433333333349,0.24000000000000002,-2.40000000000000040E-002,8.66666666666666627E-003,1.6166666666666667,198.55633333333336,0.36999999999999983,285.60166666666669
2018-06-03,08:00,154.333,285.98000000000008,94075.366666666669,91.502333333333340,380.12000000000000,379.46766666666662,0.27066666666666656,-6.86666666666666675E-002,2.00000000000000004E-003,2.7366666666666664,245.51133333333334,0.36733333333333318,285.57133333333331
2018-06-03,08:30,154.354,285.90200000000004,94059.366666666669,90.309333333333342,379.50500000000005,378.68833333333333,0.33400000000000002,-0.31700000000000006,1.33333333333333307E-003,3.4033333333333333,255.84366666666665,0.35999999999999999,285.53433333333339
2018-06-03,09:00,154.374,285.76433333333347,94057.000000000000,90.193333333333300,378.49433333333332,377.72166666666664,0.29999999999999999,-0.38133333333333336,2.00000000000000039E-002,2.9099999999999997,255.98900000000000,0.35999999999999999,285.50400000000008
2018-06-03,09:30,154.395,285.72333333333336,94047.333333333328,90.303333333333356,378.25566666666668,377.55933333333337,0.39100000000000001,-0.28466666666666668,1.36666666666666690E-002,2.5833333333333335,261.99933333333331,0.35999999999999999,285.47466666666674
2018-06-03,10:00,154.416,285.65999999999991,94029.000000000000,90.534333333333322,377.93033333333335,377.23766666666666,0.48133333333333334,-0.20433333333333331,0.42499999999999999,2.5900000000000003,265.54433333333333,0.35999999999999999,285.44466666666665
2018-06-03,10:30,154.437,285.65999999999991,94031.199999999997,90.480999999999980,377.80800000000005,377.13299999999998,0.62400000000000011,1.1160000000000001,3.5446666666666666,2.1966666666666668,248.18833333333333,0.35999999999999999,285.41366666666653
2018-06-03,11:00,154.458,285.35533333333325,94036.533333333340,90.350999999999985,376.65833333333336,376.14466666666669,1.6199999999999999,8.3926666666666669,18.423333333333332,3.3699999999999997,278.22233333333332,0.35999999999999999,285.38466666666665
2018-06-03,11:30,154.479,284.97099999999995,94046.733333333337,90.059666666666672,374.74533333333341,374.17933333333337,3.8706666666666671,22.209666666666667,47.228333333333332,3.5899999999999994,265.66633333333334,0.35999999999999999,285.35700000000003
2018-06-03,12:00,154.499,284.54566666666670,94044.033333333340,89.563000000000031,372.67833333333323,372.48900000000009,6.6436666666666655,38.398000000000003,79.761000000000010,4.8133333333333326,261.61166666666668,0.35999999999999999,285.32733333333334
2018-06-03,12:30,154.520,283.99900000000002,94055.199999999997,88.788333333333341,369.83199999999999,369.35566666666665,7.4513333333333316,42.283999999999992,91.904999999999987,4.5600000000000005,265.82233333333335,0.35999999999999999,285.29833333333335
2018-06-03,13:00,154.541,283.85999999999990,94042.166666666672,89.765000000000015,369.32133333333331,368.94433333333347,8.9376666666666669,53.776999999999980,120.41866666666665,3.8733333333333331,250.42233333333334,0.35999999999999999,285.25699999999995
2018-06-03,13:30,154.562,283.92133333333339,94042.199999999997,89.594666666666669,370.40033333333338,370.54100000000000,20.601666666666670,122.58733333333335,262.23500000000001,3.8433333333333337,249.19000000000003,0.36199999999999993,285.21633333333341
2018-06-03,14:00,154.583,284.13133333333332,94042.766666666663,88.519999999999996,371.55033333333341,371.94066666666657,22.967666666666673,136.40766666666667,296.94033333333329,4.8566666666666665,242.23300000000000,0.36833333333333312,285.17433333333332
2018-06-03,14:30,154.604,284.09200000000004,94033.966666666660,87.754000000000005,371.86799999999999,372.41233333333338,32.737666666666676,195.48266666666672,419.69733333333335,4.9199999999999999,245.52166666666665,0.36999999999999983,285.13800000000003
2018-06-03,15:00,154.624,284.51000000000005,94013.833333333328,85.423666666666648,376.40733333333333,377.59066666666678,58.186333333333337,346.06066666666669,711.65933333333328,4.1433333333333344,234.98866666666666,0.36366666666666664,285.11333333333334
2018-06-03,15:30,154.645,284.73400000000015,94027.766666666663,83.244000000000000,375.46200000000005,375.75166666666661,31.849999999999991,182.22433333333331,388.59300000000002,4.0333333333333323,211.42233333333334,0.36066666666666664,285.09866666666670
2018-06-03,16:00,154.666,284.50866666666673,94040.000000000000,84.277333333333317,373.90333333333336,373.54066666666660,25.938000000000002,147.07499999999996,325.31700000000001,3.3900000000000001,217.09933333333331,0.35999999999999999,285.09200000000004
2018-06-03,16:30,154.687,285.09099999999995,94031.833333333328,80.797333333333341,379.06866666666667,378.84999999999980,54.164666666666669,311.94999999999999,661.44000000000005,4.8300000000000001,173.43333333333334,0.35999999999999999,285.08333333333331
2018-06-03,17:00,154.708,285.32366666666678,94039.800000000003,78.565666666666672,380.27966666666669,379.26266666666669,61.934999999999988,359.55799999999994,746.41999999999996,5.7933333333333357,222.97700000000000,0.35999999999999999,285.08300000000003
2018-06-03,17:30,154.729,285.24866666666668,94052.366666666669,78.999666666666656,379.00966666666670,376.91000000000003,60.201000000000001,344.64533333333327,699.67266666666660,6.1700000000000017,232.34399999999999,0.35999999999999999,285.09100000000012
2018-06-03,18:00,154.749,285.57099999999997,94062.600000000006,79.842333333333315,381.38366666666661,378.99433333333337,56.643999999999998,326.33066666666667,666.86833333333334,4.5499999999999998,228.81100000000001,0.35999999999999999,285.09699999999998
2018-06-03,18:30,154.770,285.21933333333328,94071.466666666660,83.696666666666658,377.99466666666655,377.21433333333329,46.165333333333315,267.71000000000009,570.06666666666672,5.3899999999999997,224.83366666666669,0.35999999999999999,285.11799999999988
2018-06-03,19:00,154.791,284.96466666666680,94087.966666666660,84.266333333333307,375.86466666666678,373.56433333333337,43.678666666666658,258.14100000000002,567.60833333333323,5.5999999999999996,249.59999999999999,0.35999999999999999,285.12666666666672
2018-06-03,19:30,154.812,284.93333333333334,94104.866666666669,84.545666666666676,376.08999999999997,373.74399999999997,50.185666666666670,296.49433333333337,649.55066666666664,6.3133333333333335,222.37766666666667,0.35999999999999999,285.13566666666674
2018-06-03,20:00,154.833,285.12966666666665,94113.433333333334,84.227333333333320,377.50966666666682,373.74333333333345,47.815666666666651,283.72766666666666,609.13999999999987,6.0266666666666664,217.67800000000000,0.35999999999999999,285.14166666666671
2018-06-03,20:30,154.854,285.30133333333345,94131.300000000003,83.849666666666664,377.56199999999995,373.90233333333344,35.954999999999998,208.44266666666664,450.65600000000001,5.6466666666666665,210.32166666666666,0.35999999999999999,285.14299999999997
2018-06-03,21:00,154.874,285.17666666666662,94157.500000000000,85.900333333333350,376.65699999999993,376.23800000000000,36.120333333333328,210.56666666666669,437.30633333333338,5.0033333333333339,234.78900000000002,0.35999999999999999,285.14733333333334
2018-06-03,21:30,154.895,285.20999999999998,94177.233333333337,87.504000000000005,376.71999999999997,375.73233333333337,27.704666666666665,162.15866666666665,336.66400000000004,4.9099999999999993,183.22233333333332,0.35999999999999999,285.14366666666666
2018-06-03,22:00,154.916,284.96333333333331,94212.899999999994,87.247000000000000,375.23233333333332,373.52633333333330,26.458333333333336,158.44466666666665,326.05133333333328,4.8799999999999999,172.98900000000000,0.35999999999999999,285.14166666666659
2018-06-03,22:30,154.937,284.24200000000008,94257.666666666672,86.820666666666668,370.51166666666666,367.95033333333333,21.000333333333334,136.01933333333332,286.59533333333331,8.3533333333333353,224.62233333333333,0.35999999999999999,285.13633333333331
2018-06-03,23:00,154.958,283.83566666666673,94296.666666666672,86.548000000000002,368.36433333333332,364.34933333333333,12.750666666666666,82.533333333333331,171.74633333333333,7.0299999999999994,205.59966666666665,0.35999999999999999,285.11199999999997
2018-06-03,23:30,154.979,283.80666666666662,94332.399999999994,85.265333333333331,367.91033333333337,362.86266666666660,4.8450000000000006,32.920999999999999,70.877333333333326,7.5933333333333346,241.11099999999999,0.35999999999999999,285.07433333333336
2018-06-04,00:00,155.000,283.55500000000006,94365.366666666669,85.178000000000011,366.50666666666672,361.59433333333334,4.2066666666666670,26.727999999999994,58.753999999999998,7.1333333333333346,226.25600000000000,0.35999999999999999,285.02200000000005
